{"data":{"norad_id":55494,"epoch":"2026-09-20T14:28:58.225152Z","epoch_age_seconds":91428,"freshness":"FRESH","line1":"1 55494U 23015AX  26263.60345168 -.00000001  00000+0  94778-5 0  9991","line2":"2 55494  43.0039 319.0567 0001068 318.3824  41.6947 15.27581786200400","mean_motion":15.27581786,"eccentricity":0.0001068,"inclination_deg":43.0039,"raan_deg":319.0567,"arg_perigee_deg":318.3824,"mean_anomaly_deg":41.6947,"bstar":9.4778e-6,"rev_number":20040,"period_min":94.26663849997,"perigee_km":482.31097401445,"apogee_km":483.77652222225,"semimajor_km":6861.1807481184,"source":"CELESTRAK","updated_at":"2026-09-21T09:00:33.259752Z"}}